EW1761 Weather Reports


time (UTC)temp
C
wind
direction
speed
KPH
gust
KPH
rain 1hr
cm
rain 24hr
cm
rain mn
cm
humidity
%
barometer
mb
20260508194552 21 61 1.6 11.3 0.00 0.00 0.00 51 1015.4
20260508193100 21 188 1.6 8.0 0.00 0.00 0.00 47 1015.6
20260508191550 22 323 4.8 12.9 0.00 0.00 0.00 45 1016.0
20260508190048 21 244 1.6 6.4 0.00 0.00 0.00 49 1016.4
20260508184558 21 221 3.2 14.5 0.00 0.00 0.00 46 1016.5
20260508183053 20 318 1.6 11.3 0.00 0.00 0.00 47 1016.7
20260508181543 20 293 1.6 12.9 0.00 0.00 0.00 49 1016.8
20260508180042 19 234 0.0 8.0 0.00 0.00 0.00 54 1016.9
20260508174557 20 355 3.2 8.0 0.00 0.00 0.00 45 1017.0
20260508173041 20 279 1.6 9.7 0.00 0.00 0.00 45 1017.2
20260508171538 20 210 1.6 6.4 0.00 0.00 0.00 52 1017.4
20260508170038 19 5 3.2 6.4 0.00 0.00 0.00 48 1017.6
20260508164544 18 239 3.2 8.0 0.00 0.00 0.00 47 1018.1
20260508163104 18 172 0.0 4.8 0.00 0.00 0.00 54 1018.1
20260508161531 19 189 1.6 6.4 0.00 0.00 0.00 49 1018.3
20260508160030 18 266 1.6 8.0 0.00 0.00 0.00 49 1018.5
20260508154525 17 262 3.2 6.4 0.00 0.00 0.00 49 1018.8
20260508153027 17 49 1.6 9.7 0.00 0.00 0.00 51 1018.9
20260508151526 17 334 3.2 9.7 0.00 0.00 0.00 51 1018.8
20260508150015 16 336 1.6 8.0 0.00 0.00 0.00 56 1018.7
20260508144513 16 35 6.4 12.9 0.00 0.13 0.00 59 1018.8
20260508143010 15 355 1.6 9.7 0.00 0.13 0.00 59 1018.9
20260508141507 15 349 3.2 14.5 0.00 0.13 0.00 61 1019.0
20260508140004 15 346 0.0 8.0 0.00 0.13 0.00 64 1019.1
20260508134501 14 20 0.0 8.0 0.00 0.15 0.00 69 1019.1
20260508133106 13 5 0.0 6.4 0.00 0.15 0.00 67 1019.0
20260508131557 13 31 1.6 6.4 0.00 0.15 0.00 68 1018.8
20260508130104 12 23 4.8 8.0 0.00 0.15 0.00 74 1018.8
20260508124548 12 19 0.0 4.8 0.00 0.28 0.00 81 1018.7
20260508123047 11 351 0.0 4.8 0.00 0.28 0.00 89 1018.5
20260508121544 10 351 0.0 1.6 0.00 0.28 0.00 93 1018.4
20260508120044 10 351 0.0 1.6 0.00 0.28 0.00 95 1018.1
20260508114541 8 351 0.0 0.0 0.00 0.53 0.00 95 1018.0
20260508113047 8 350 0.0 0.0 0.00 0.53 0.00 95 1017.6
20260508111536 8 350 0.0 0.0 0.00 0.53 0.00 95 1017.4
20260508110045 7 350 0.0 0.0 0.00 0.53 0.00 94 1017.1
20260508104528 7 350 0.0 1.6 0.00 0.69 0.00 94 1016.8
20260508103026 8 350 0.0 1.6 0.00 0.69 0.00 94 1016.6
20260508101532 8 350 0.0 1.6 0.00 0.69 0.00 94 1016.3
20260508100021 8 350 0.0 0.0 0.00 0.69 0.00 94 1016.1
20260508094520 8 350 0.0 3.2 0.00 0.69 0.00 94 1016.0
20260508093037 8 350 0.0 0.0 0.00 0.69 0.00 94 1016.0
20260508091522 8 350 0.0 0.0 0.00 0.69 0.00 94 1016.0
20260508090027 8 350 0.0 0.0 0.00 0.69 0.00 94 1015.7
20260508084515 8 350 0.0 0.0 0.00 0.71 0.00 93 1015.6
20260508083020 8 350 0.0 0.0 0.00 0.71 0.00 93 1015.5
20260508081512 8 350 0.0 0.0 0.00 0.71 0.00 92 1015.4
20260508080009 8 350 0.0 0.0 0.00 0.71 0.00 92 1015.3
20260508074513 8 350 0.0 0.0 0.00 1.12 0.00 92 1015.2
20260508073008 8 350 0.0 0.0 0.00 1.12 0.00 92 1015.1
20260508071505 8 350 0.0 0.0 0.00 1.12 0.00 91 1015.0
20260508070002 9 350 0.0 0.0 0.00 1.12 0.00 91 1014.9
20260508064600 9 350 0.0 0.0 0.00 1.57 0.00 90 1014.8
20260508063058 10 350 0.0 0.0 0.00 1.57 0.00 89 1014.7
20260508061606 10 350 0.0 1.6 0.00 1.57 0.00 89 1014.8
20260508060056 10 350 0.0 0.0 0.00 1.57 0.00 89 1014.8
20260508054630 10 350 0.0 1.6 0.00 2.21 0.00 88 1014.9
20260508053052 10 350 0.0 0.0 0.00 2.21 0.00 88 1014.9
20260508051551 10 350 0.0 1.6 0.00 2.21 0.00 86 1014.8
20260508050050 11 350 0.0 0.0 0.00 2.21 0.00 85 1014.7
20260508044556 11 350 0.0 0.0 0.00 2.31 0.00 84 1014.5
20260508043043 11 350 0.0 1.6 0.00 2.31 0.00 83 1014.4
20260508041549 12 350 0.0 1.6 0.00 2.31 0.00 80 1014.2
20260508040037 12 350 0.0 1.6 0.00 2.31 0.00 78 1014.3
20260508034532 13 350 0.0 1.6 0.00 2.34 2.31 75 1014.3
20260508033036 13 350 0.0 1.6 0.00 2.34 2.31 73 1014.2
20260508031528 13 350 0.0 1.6 0.00 2.34 2.31 70 1014.1
20260508030034 15 350 0.0 4.8 0.00 2.34 2.31 67 1014.1
20260508024523 15 315 1.6 6.4 0.00 3.20 2.31 61 1013.9
20260508023034 16 23 1.6 4.8 0.00 3.20 2.31 60 1013.7
20260508021517 16 9 3.2 8.0 0.00 3.20 2.31 59 1013.4
20260508020016 16 323 3.2 8.0 0.00 3.20 2.31 60 1013.3
20260508014515 16 35 1.6 6.4 0.00 4.17 2.31 62 1013.0
20260508013014 17 336 1.6 6.4 0.00 4.17 2.31 63 1012.5
20260508011513 17 335 1.6 9.7 0.00 4.17 2.31 63 1012.3
20260508010018 17 355 3.2 14.5 0.00 4.17 2.31 64 1012.2
20260508004518 17 32 3.2 12.9 0.00 4.83 2.31 74 1011.8
20260508003014 17 24 3.2 6.4 0.00 4.83 2.31 79 1011.4
20260508001511 17 26 6.4 14.5 0.00 4.83 2.31 79 1010.9
20260508000010 17 42 1.6 8.0 0.00 4.83 2.31 82 1010.6
20260507234508 18 13 4.8 12.9 0.00 5.13 2.31 82 1010.3
20260507233009 18 82 8.0 17.7 0.00 5.13 2.31 81 1010.1
20260507231506 18 111 8.0 22.5 0.00 5.13 2.31 80 1009.6
20260507230006 19 285 4.8 19.3 0.00 5.13 2.31 80 1009.5
20260507224508 20 94 6.4 24.1 0.00 5.13 2.31 76 1008.8
20260507223006 23 355 6.4 16.1 0.00 5.13 2.31 61 1008.3
20260507221503 23 281 3.2 22.5 0.00 5.13 2.31 66 1008.0
20260507220003 22 290 0.0 3.2 0.00 5.13 2.31 77 1007.5
20260507214502 23 300 1.6 4.8 0.00 5.13 2.31 68 1007.5
20260507213005 25 164 3.2 12.9 0.00 5.13 2.31 66 1007.3
20260507211559 25 190 1.6 14.5 0.00 5.13 2.31 69 1007.3
20260507210120 25 230 1.6 11.3 0.00 5.13 2.31 70 1007.2
20260507204658 24 172 3.2 11.3 0.00 5.13 2.31 69 1007.2
20260507203107 23 198 1.6 8.0 0.00 5.13 2.31 71 1007.4
20260507201600 23 259 3.2 8.0 0.00 5.13 2.31 73 1007.3
20260507200106 24 229 3.2 12.9 0.00 5.13 2.31 69 1007.3